When you browse on this site, cookies collect data to enhance your experience and personalize the content and advertising you see.
Visit our Privacy Policy to learn more. By continuing to use the site, you agree to this use of cookies and data.
  • In Deutschland
  • Länderverzeichnis
  • Für 7 Tage
  • Wassertemperatur
  • Satellitenkarten
  • Wetterkarte
  • Widgets
  • user-avatar
    Anmelden

    Stündliche Wetter Myszadla

    Heute, 23 Juli, Dienstag

    Zeit Temperatur Niederschläge Wind Luftdruck Luftfeuchtigkeit
    00:00 +16°C° 0 mm 1 m/S 755 mmHg 80%
    01:00 +15°C° 0 mm 1 m/S 755 mmHg 80%
    02:00 +15°C° 0 mm 1 m/S 755 mmHg 79%
    03:00 +15°C° 0 mm 1 m/S 754 mmHg 78%
    04:00 +14°C° 0 mm 1 m/S 754 mmHg 78%
    05:00 +16°C° 0 mm 1 m/S 754 mmHg 75%
    06:00 +17°C° 0 mm 2 m/S 754 mmHg 71%
    07:00 +18°C° 0 mm 2 m/S 754 mmHg 68%
    08:00 +18°C° 0 mm 3 m/S 754 mmHg 69%
    09:00 +18°C° 0 mm 3 m/S 754 mmHg 70%
    10:00 +18°C° 0 mm 4 m/S 754 mmHg 71%
    11:00 +19°C° 0 mm 4 m/S 754 mmHg 69%
    12:00 +20°C° 0 mm 4 m/S 754 mmHg 68%
    13:00 +20°C° 0 mm 4 m/S 754 mmHg 66%
    14:00 +21°C° 0 mm 4 m/S 754 mmHg 66%
    15:00 +21°C° 0 mm 4 m/S 754 mmHg 66%
    16:00 +21°C° 0 mm 4 m/S 754 mmHg 67%
    17:00 +20°C° 0 mm 3 m/S 753 mmHg 72%
    18:00 +19°C° 0 mm 3 m/S 753 mmHg 77%
    19:00 +18°C° 0 mm 2 m/S 753 mmHg 82%
    20:00 +17°C° 0 mm 2 m/S 753 mmHg 86%
    21:00 +17°C° 0 mm 2 m/S 754 mmHg 90%
    22:00 +16°C° 0 mm 2 m/S 754 mmHg 93%
    23:00 +15°C° 0 mm 2 m/S 754 mmHg 94%

    Morgen, 24 Juli, Mittwoch

    Zeit Temperatur Niederschläge Wind Luftdruck Luftfeuchtigkeit
    00:00 +15°C° 0 mm 2 m/S 754 mmHg 94%
    01:00 +15°C° 0 mm 1 m/S 753 mmHg 95%
    02:00 +14°C° 0 mm 1 m/S 753 mmHg 95%
    03:00 +14°C° 0 mm 1 m/S 753 mmHg 95%
    04:00 +14°C° 0 mm 1 m/S 753 mmHg 95%
    05:00 +16°C° 0 mm 1 m/S 753 mmHg 89%
    06:00 +18°C° 0 mm 1 m/S 753 mmHg 84%
    07:00 +20°C° 0 mm 1 m/S 754 mmHg 78%
    08:00 +21°C° 0 mm 1 m/S 754 mmHg 72%
    09:00 +21°C° 0 mm 2 m/S 754 mmHg 66%
    10:00 +24°C° 0 mm 2 m/S 754 mmHg 60%
    11:00 +25°C° 0 mm 2 m/S 754 mmHg 57%
    12:00 +25°C° 0 mm 2 m/S 753 mmHg 54%
    13:00 +26°C° 0 mm 2 m/S 753 mmHg 51%
    14:00 +26°C° 0 mm 2 m/S 753 mmHg 50%
    15:00 +26°C° 0 mm 3 m/S 753 mmHg 50%
    16:00 +27°C° 0 mm 3 m/S 753 mmHg 50%
    17:00 +25°C° 0 mm 2 m/S 753 mmHg 57%
    18:00 +24°C° 0 mm 2 m/S 753 mmHg 63%
    19:00 +22°C° 0 mm 1 m/S 753 mmHg 70%
    20:00 +21°C° 0 mm 1 m/S 753 mmHg 76%
    21:00 +20°C° 0 mm 1 m/S 754 mmHg 81%
    22:00 +19°C° 0 mm 1 m/S 754 mmHg 87%
    23:00 +19°C° 0 mm 1 m/S 754 mmHg 88%

    übermorgen, 25 Juli, Donnerstag

    Zeit Temperatur Niederschläge Wind Luftdruck Luftfeuchtigkeit
    00:00 +18°C° 0 mm 1 m/S 754 mmHg 90%
    01:00 +18°C° 0 mm 1 m/S 754 mmHg 92%
    02:00 +18°C° 0 mm 1 m/S 754 mmHg 92%
    03:00 +16°C° 0 mm 1 m/S 754 mmHg 93%
    04:00 +16°C° 0 mm 1 m/S 754 mmHg 94%
    05:00 +19°C° 0 mm 1 m/S 754 mmHg 88%
    06:00 +20°C° 0 mm 1 m/S 754 mmHg 82%
    07:00 +22°C° 0 mm 1 m/S 754 mmHg 76%
    08:00 +23°C° 0 mm 2 m/S 754 mmHg 70%
    09:00 +25°C° 0 mm 2 m/S 754 mmHg 64%
    10:00 +26°C° 0 mm 2 m/S 754 mmHg 57%
    11:00 +27°C° 0 mm 2 m/S 754 mmHg 54%
    12:00 +27°C° 0 mm 3 m/S 754 mmHg 51%
    13:00 +28°C° 0 mm 3 m/S 753 mmHg 47%
    14:00 +28°C° 0 mm 3 m/S 753 mmHg 47%
    15:00 +28°C° 0 mm 3 m/S 753 mmHg 47%
    16:00 +28°C° 0 mm 3 m/S 752 mmHg 47%
    17:00 +26°C° 0 mm 3 m/S 752 mmHg 56%
    18:00 +24°C° 0 mm 3 m/S 752 mmHg 65%
    19:00 +22°C° 0 mm 3 m/S 752 mmHg 74%
    20:00 +20°C° 0 mm 3 m/S 752 mmHg 77%
    21:00 +19°C° 0 mm 3 m/S 752 mmHg 80%
    22:00 +18°C° 0 mm 3 m/S 752 mmHg 83%
    23:00 +17°C° 0 mm 3 m/S 752 mmHg 87%

    26 Juli, Freitag

    Zeit Temperatur Niederschläge Wind Luftdruck Luftfeuchtigkeit
    00:00 +16°C° 0 mm 3 m/S 752 mmHg 90%
    01:00 +15°C° 0 mm 2 m/S 752 mmHg 94%
    02:00 +15°C° 0 mm 2 m/S 752 mmHg 95%
    03:00 +15°C° 0 mm 2 m/S 752 mmHg 95%
    04:00 +15°C° 0 mm 2 m/S 752 mmHg 96%
    05:00 +16°C° 0 mm 3 m/S 752 mmHg 91%
    06:00 +18°C° 0 mm 3 m/S 752 mmHg 85%
    07:00 +19°C° 0 mm 3 m/S 751 mmHg 79%
    08:00 +20°C° 0 mm 4 m/S 751 mmHg 73%
    09:00 +22°C° 0 mm 4 m/S 752 mmHg 66%
    10:00 +23°C° 0 mm 4 m/S 752 mmHg 60%
    11:00 +25°C° 0.1 mm 4 m/S 751 mmHg 59%
    12:00 +25°C° 0.1 mm 4 m/S 751 mmHg 59%
    13:00 +26°C° 0.1 mm 5 m/S 751 mmHg 58%
    14:00 +25°C° 0.3 mm 5 m/S 751 mmHg 61%
    15:00 +25°C° 0.3 mm 5 m/S 750 mmHg 64%
    16:00 +25°C° 0.3 mm 5 m/S 750 mmHg 67%
    17:00 +23°C° 0.1 mm 4 m/S 750 mmHg 73%
    18:00 +22°C° 0.1 mm 4 m/S 750 mmHg 79%
    19:00 +21°C° 0.1 mm 3 m/S 750 mmHg 84%
    20:00 +20°C° 0 mm 3 m/S 750 mmHg 86%
    21:00 +19°C° 0 mm 3 m/S 750 mmHg 87%
    22:00 +19°C° 0 mm 3 m/S 750 mmHg 89%
    23:00 +18°C° 0.1 mm 3 m/S 750 mmHg 91%

    27 Juli, Samstag

    Zeit Temperatur Niederschläge Wind Luftdruck Luftfeuchtigkeit
    00:00 +18°C° 0.1 mm 3 m/S 750 mmHg 94%
    01:00 +17°C° 0.1 mm 3 m/S 750 mmHg 96%
    02:00 +17°C° 0 mm 3 m/S 750 mmHg 97%
    03:00 +16°C° 0 mm 3 m/S 750 mmHg 97%
    04:00 +16°C° 0 mm 3 m/S 750 mmHg 98%
    05:00 +17°C° 0 mm 3 m/S 750 mmHg 94%
    06:00 +18°C° 0 mm 4 m/S 750 mmHg 90%
    07:00 +20°C° 0 mm 4 m/S 750 mmHg 86%
    08:00 +21°C° 0 mm 4 m/S 750 mmHg 79%
    09:00 +23°C° 0 mm 5 m/S 750 mmHg 71%
    10:00 +25°C° 0 mm 5 m/S 750 mmHg 64%
    11:00 +26°C° 0.2 mm 5 m/S 750 mmHg 61%
    12:00 +27°C° 0.2 mm 6 m/S 750 mmHg 59%
    13:00 +27°C° 0.2 mm 6 m/S 750 mmHg 56%
    14:00 +27°C° 0.3 mm 6 m/S 750 mmHg 57%
    15:00 +27°C° 0.3 mm 6 m/S 749 mmHg 57%
    16:00 +27°C° 0.3 mm 6 m/S 749 mmHg 58%
    17:00 +25°C° 0.1 mm 5 m/S 749 mmHg 64%
    18:00 +23°C° 0.1 mm 4 m/S 749 mmHg 70%
    19:00 +22°C° 0.1 mm 3 m/S 749 mmHg 77%
    20:00 +21°C° 0 mm 3 m/S 749 mmHg 82%
    21:00 +20°C° 0 mm 3 m/S 749 mmHg 87%
    22:00 +19°C° 0 mm 3 m/S 750 mmHg 92%
    23:00 +19°C° 0 mm 3 m/S 750 mmHg 92%

    28 Juli, Sonntag

    Zeit Temperatur Niederschläge Wind Luftdruck Luftfeuchtigkeit
    00:00 +19°C° 0 mm 3 m/S 749 mmHg 92%
    01:00 +19°C° 0 mm 3 m/S 749 mmHg 92%
    02:00 +19°C° 0 mm 3 m/S 749 mmHg 93%
    03:00 +18°C° 0 mm 3 m/S 749 mmHg 94%
    04:00 +18°C° 0 mm 3 m/S 749 mmHg 95%
    05:00 +19°C° 0 mm 4 m/S 749 mmHg 90%
    06:00 +21°C° 0 mm 4 m/S 749 mmHg 86%
    07:00 +22°C° 0 mm 4 m/S 749 mmHg 81%
    08:00 +23°C° 0.3 mm 5 m/S 749 mmHg 76%
    09:00 +26°C° 0.3 mm 5 m/S 749 mmHg 70%
    10:00 +27°C° 0.3 mm 6 m/S 749 mmHg 64%
    11:00 +28°C° 0.8 mm 6 m/S 749 mmHg 63%
    12:00 +28°C° 0.8 mm 6 m/S 749 mmHg 62%
    13:00 +28°C° 0.8 mm 6 m/S 748 mmHg 61%
    14:00 +28°C° 0.4 mm 5 m/S 748 mmHg 60%
    15:00 +28°C° 0.4 mm 5 m/S 748 mmHg 60%
    16:00 +28°C° 0.4 mm 4 m/S 748 mmHg 60%
    17:00 +27°C° 0.3 mm 4 m/S 748 mmHg 67%
    18:00 +26°C° 0.3 mm 4 m/S 748 mmHg 73%
    19:00 +24°C° 0.3 mm 3 m/S 748 mmHg 80%
    20:00 +22°C° 0.2 mm 3 m/S 748 mmHg 83%
    21:00 +22°C° 0.2 mm 3 m/S 748 mmHg 86%
    22:00 +21°C° 0.2 mm 3 m/S 748 mmHg 89%
    23:00 +20°C° 0.1 mm 3 m/S 748 mmHg 90%
    Mehr zeigen